Location: Cluj-Napoca
(46.7712°N, 23.6236°E)
Time: 14:45:50
(UTC+02:00)

M-CUBED/EXP-1 PRIME - Visible Passes

Search period start: 06 December 2021 00:00
Search period end: 16 December 2021 00:00
Orbit: 427 x 652 km, 101.7° (Epoch: 05 December)

Date Brightness Start Highest point End Pass type
(mag) Time Alt. Az. Time Alt. Az. Time Alt. Az.
06 Dec ? 06:51:09 10° NE 06:55:00 28° E 06:58:42 10° SSE visible
06 Dec ? 17:36:19 10° SE 17:40:20 49° ENE 17:44:36 10° N visible
06 Dec ? 19:11:40 10° SW 19:14:40 19° W 19:17:48 10° NW visible
07 Dec ? 06:43:52 10° NE 06:47:22 22° E 06:50:44 10° SSE visible
07 Dec ? 17:28:54 10° SE 17:32:50 40° ENE 17:36:59 10° N visible
07 Dec ? 19:03:37 10° SSW 19:07:01 24° W 19:10:35 10° NW visible
08 Dec ? 06:36:41 10° NE 06:39:43 18° E 06:42:40 10° SE visible
08 Dec ? 17:21:33 10° SE 17:25:21 33° ENE 17:29:20 10° N visible
08 Dec ? 18:55:42 10° SSW 18:59:24 29° W 19:03:16 10° NW visible
09 Dec ? 06:29:39 10° ENE 06:32:03 14° E 06:34:23 10° SE visible
09 Dec ? 17:14:14 10° ESE 17:17:53 27° ENE 17:21:39 10° N visible
09 Dec ? 18:47:50 10° S 18:51:46 37° WSW 18:55:54 10° NW visible
10 Dec ? 06:23:01 10° ENE 06:24:21 11° E 06:25:41 10° ESE visible
10 Dec ? 17:07:00 10° ESE 17:10:24 23° ENE 17:13:55 10° N visible
10 Dec ? 18:40:03 10° S 18:44:09 46° WSW 18:48:28 10° NNW visible
11 Dec ? 18:32:19 10° S 18:36:32 59° WSW 18:40:59 10° NNW visible
12 Dec ? 18:24:39 10° SSE 18:28:56 74° WSW 18:33:27 10° NNW visible
13 Dec ? 18:17:02 10° SSE 18:21:22 89° NE 18:25:53 10° NNW visible
13 Dec ? 19:54:49 10° WSW 19:56:03 11° W 19:57:18 10° WNW visible
14 Dec ? 07:24:33 10° NNE 07:28:37 38° ESE 07:32:26 10° S visible
14 Dec ? 18:09:27 10° SSE 18:13:47 72° ENE 18:18:17 10° NNW visible
14 Dec ? 19:46:01 10° SW 19:48:19 14° W 19:50:41 10° WNW visible
15 Dec ? 07:17:08 10° NE 07:20:57 30° E 07:24:32 10° SSE visible
15 Dec ? 18:01:55 10° SE 18:06:13 58° ENE 18:10:40 10° NNW visible
15 Dec ? 19:37:40 10° SW 19:40:37 18° W 19:43:37 10° NW visible
